OneWeb SL0065

operational
NORAD ID: 45164 Int'l Des: 2020-008 Owner: ONEWEB Country: UK Constellation: oneweb
LEOCIRCULARPOLARONEWEB_TYPE

About OneWeb SL0065

Description loading...

Live Position

Loading 3D Globe...

Upcoming Passes

Altitude History

Altitude vs Time

uPlot chart will show altitude changes over time

Two-Line Element Set

1 45164U 20008AK 25339.33336806 -.00047678 00000-0 -13708+0 0 9996
2 45164 87.8838 74.9174 0001303 110.6650 333.6192 13.10495803 5187
Epoch: Dec 5, 2025 • Age: 14 hours

Current Status

Altitude 1249.8 km
Velocity 7.23 km/s
Sub-Earth Point -74.77°S, 24.34°E
Launch Date Feb 6, 2020
Age 5.8 years
Type internet

Technical Details

Classification Payload
Mass 148.00 kg
Dry Mass 140.00 kg
Total Mass 148.00 kg
Length 1.30 m
Diameter 1.00 m
Span 5.00 m
Shape Trapezoid+2 pan
Manufacturer ONEWUS
Bus Type ARROW
Phase Status In Orbit
Owner/State ONEWEB/UK

Large Constellations

Loading constellations...